Wind_Speed
12 11 14 15 17 17 17 18 19 21 23 22 21 20 18 17 17 16 14 14 15 16 16 15 15 15 10 13 18 20 21 19 19 18 16 15 17 19 22 22 20 21 24 24 24 24 24 25 24 18 13 14 15 14 14 15 17 19 22 24 25 24 24 24 24 24 24 24 25 26 27 27 25 24 23 24 24 21 21 21 21 20 21 23 26
12 11 13 15 16 17 18 18 19 21 22 23 22 22 21 19 18 15 14 15 16 17 18 17 15 13 11 14 20 23 20 16 16 17 15 14 16 18 20 22 23 25 27 27 26 22 20 20 20 17 12 12 13 14 13 14 16 19 21 23 22 22 22 21 22 22 22 22 24 26 28 28 26 25 23 24 24 21 19 18 18 19 22 25 27
12 11 11 14 16 17 19 19 20 21 22 23 22 22 21 20 18 15 17 18 18 18 19 18 15 14 14 17 23 26 18 13 14 14 14 15 16 18 21 24 27 29 28 26 24 20 17 15 15 16 14 11 10 10 11 12 14 16 18 18 18 23 24 20 21 21 20 21 24 27 29 28 27 26 25 25 24 23 21 19 20 22 24 25 26
12 11 11 13 16 18 19 20 21 21 22 22 20 20 20 20 18 16 17 19 22 22 18 16 14 14 18 22 25 24 17 14 15 15 15 16 19 21 24 27 28 28 26 22 19 19 16 12 11 12 12 10 7 7 8 11 13 14 14 13 15 20 20 19 21 21 21 22 24 27 29 28 28 27 26 25 26 27 25 23 23 23 24 23 24
11 12 12 13 16 18 19 20 21 22 23 22 20 19 19 19 17 17 17 19 23 23 18 15 14 19 23 23 20 19 16 15 16 16 15 17 21 23 25 25 25 24 22 18 16 17 14 11 11 9 6 7 6 4 5 11 15 15 14 12 14 16 19 24 27 27 27 26 26 26 27 27 27 26 26 26 27 28 26 24 23 22 22 22 24
13 14 13 13 14 15 17 19 21 22 23 22 22 22 21 19 18 19 19 20 23 22 19 16 17 23 21 15 14 15 15 15 15 15 16 18 20 22 22 21 21 19 17 14 14 15 13 12 14 11 7 8 7 3 6 13 18 17 15 13 14 17 24 31 31 31 31 29 27 25 25 26 26 26 26 25 24 25 25 24 24 23 23 24 26
10 12 13 13 13 14 15 17 19 21 22 24 25 25 21 17 18 21 24 24 24 23 20 21 22 22 19 17 16 15 15 14 15 17 19 19 20 20 18 16 17 15 13 12 13 15 16 14 16 16 12 10 7 4 12 18 20 18 15 15 16 17 22 26 27 28 29 27 25 24 26 26 24 23 22 22 24 26 27 26 24 23 24 26 28
9 11 12 13 15 15 15 16 19 20 22 24 25 24 18 16 18 22 26 27 26 27 24 24 25 23 25 26 21 17 17 17 18 21 20 18 16 15 13 14 16 15 13 12 12 15 18 16 18 20 14 11 8 11 20 23 23 19 15 16 17 17 19 22 24 26 26 25 24 25 26 23 20 21 22 24 26 27 26 24 23 24 26 28 29
8 9 11 13 15 17 18 17 19 21 22 23 23 23 20 20 21 19 23 27 28 30 26 23 25 27 29 28 24 20 22 25 23 20 17 14 12 10 12 13 16 16 14 12 12 16 18 18 19 18 11 11 13 19 24 25 25 21 17 16 17 19 21 23 24 24 23 22 23 24 22 19 18 21 23 25 25 25 23 22 23 25 26 27 27
5 5 7 8 11 14 17 18 19 21 22 23 22 23 24 26 25 19 20 24 24 26 25 24 26 28 29 28 26 24 26 28 23 17 12 9 8 8 10 11 14 15 15 15 16 17 18 18 19 17 13 15 20 25 25 28 28 23 21 19 17 17 16 17 19 19 19 20 21 21 19 18 19 21 22 23 22 21 21 22 23 24 24 25 25
5 6 6 6 6 7 10 13 16 20 22 23 23 24 26 28 27 23 21 21 21 21 22 23 22 23 27 26 24 24 25 22 18 14 10 7 6 9 11 11 15 16 15 18 18 17 18 19 19 18 19 21 25 26 28 33 32 27 26 23 19 19 17 16 18 20 21 21 20 19 18 18 19 21 22 22 21 21 23 24 25 26 26 25 25
7 8 9 9 8 6 6 7 9 13 16 18 20 23 26 29 30 27 25 23 23 23 23 22 22 24 25 24 22 21 18 16 15 14 12 9 8 11 14 14 16 18 17 19 18 17 19 21 22 23 25 27 28 29 36 41 38 33 30 27 24 25 25 23 24 26 26 24 21 19 19 20 21 22 22 22 23 25 27 27 26 25 24 23 22
8 8 10 10 10 10 9 7 7 8 10 11 12 15 20 26 30 29 27 25 26 27 28 26 25 23 22 19 16 15 13 14 17 16 13 9 9 12 15 16 16 19 20 20 19 18 19 21 23 25 26 28 31 36 43 45 42 38 33 29 26 26 27 28 28 29 29 27 24 21 20 22 22 22 22 23 25 27 27 25 23 21 20 19 18
9 9 9 10 12 12 11 9 8 8 9 8 8 9 12 16 22 25 24 22 24 26 28 26 20 17 15 12 12 14 14 16 18 16 13 10 12 14 14 14 14 17 19 20 20 18 18 19 22 26 29 33 36 41 44 44 43 39 33 28 25 24 26 28 29 30 28 25 22 19 18 20 20 20 22 23 25 24 23 20 19 18 18 17 18
10 10 10 11 13 13 11 10 9 10 10 9 9 9 10 9 11 15 17 17 17 19 21 18 13 11 12 13 14 16 17 16 18 16 14 16 18 19 19 16 14 17 19 20 20 19 20 24 28 31 34 38 40 42 43 43 41 36 31 26 24 25 27 28 29 28 24 20 18 17 17 17 18 19 21 22 22 20 19 18 18 18 18 18 18
8 9 10 10 11 10 9 10 10 10 10 9 9 10 11 9 8 11 12 11 11 12 14 13 11 10 12 15 15 15 17 17 17 17 17 19 21 22 23 21 18 18 20 22 23 24 28 31 33 35 36 38 40 42 43 41 36 32 28 24 23 25 26 27 26 23 20 18 19 20 20 19 18 18 19 19 19 18 18 18 18 19 18 18 17
6 7 8 8 8 8 7 9 10 8 9 10 9 10 11 10 10 11 11 9 9 11 12 12 12 12 13 14 14 15 18 19 19 20 20 21 22 21 22 24 24 22 23 24 26 28 32 35 37 39 39 40 41 42 39 35 31 27 23 21 21 22 23 22 20 19 18 19 20 20 19 18 18 18 18 18 17 17 17 17 17 17 16 14 14
4 4 5 6 7 7 6 7 7 5 8 10 10 10 10 10 12 12 10 10 9 10 13 15 17 16 16 16 18 20 21 21 22 22 22 22 23 23 22 25 27 27 26 27 28 30 32 35 36 38 40 41 41 37 31 27 23 20 17 17 17 17 17 17 16 16 17 17 17 16 16 17 17 16 15 15 14 14 14 14 13 13 12 11 11
3 3 5 7 6 5 5 6 8 8 9 11 10 9 9 10 11 11 11 12 12 13 15 18 21 21 17 17 21 23 24 23 24 24 24 24 24 24 23 24 26 28 28 28 29 29 30 31 33 36 37 36 32 27 21 18 16 13 12 13 13 13 13 14 14 14 15 15 15 15 14 13 13 12 12 12 12 11 11 11 11 11 11 11 10
3 4 5 6 4 4 3 6 9 11 11 11 10 9 10 11 9 8 9 11 12 15 17 17 17 20 19 20 22 23 24 23 23 26 26 27 26 24 22 21 22 23 23 24 25 25 27 28 30 30 28 25 22 18 14 12 11 10 10 11 11 11 12 12 12 13 14 15 14 13 12 11 11 11 11 11 11 11 11 11 11 11 11 11 8
3 5 5 5 2 3 4 7 10 10 8 7 7 8 11 11 8 7 8 10 10 12 16 17 17 19 19 21 24 25 25 23 20 20 23 26 28 28 26 22 19 19 20 21 22 23 24 24 24 22 19 17 14 11 9 8 8 8 8 8 8 9 10 11 11 12 13 13 12 12 12 12 12 12 13 13 13 13 13 13 13 12 11 9 6
3 4 5 6 4 5 5 7 10 9 8 4 4 7 7 7 6 6 8 12 14 13 15 19 23 25 22 18 19 22 24 23 19 17 18 20 23 25 26 25 23 20 19 20 20 20 20 20 18 16 13 9 6 5 5 5 5 5 6 7 8 9 10 11 12 13 14 14 14 14 14 14 14 14 15 14 15 16 16 15 14 12 9 7 5
4 5 5 6 6 6 7 7 8 9 10 8 7 7 4 3 4 6 9 13 16 15 13 15 20 25 26 21 17 17 17 17 18 18 18 19 20 21 21 22 23 21 20 19 18 17 16 15 13 9 5 3 3 4 4 4 5 6 8 10 10 11 13 13 14 15 16 16 17 17 16 16 16 16 16 17 18 19 17 15 13 11 8 6 4
5 5 5 6 6 6 7 7 7 8 10 12 12 9 6 6 7 8 11 13 13 12 10 10 11 13 16 16 14 13 14 15 17 19 18 18 18 19 19 19 18 17 16 15 14 13 11 9 6 3 3 4 4 4 4 4 6 7 9 11 12 13 13 14 15 16 17 17 18 18 17 16 15 16 17 19 20 18 16 14 12 10 8 6 4
6 6 6 5 5 6 6 7 7 7 9 11 13 12 9 8 9 10 11 11 10 10 11 11 10 8 8 11 13 16 17 17 17 16 15 15 16 16 15 13 11 10 10 10 9 8 6 4 3 4 5 5 4 4 5 5 7 9 10 12 13 13 13 13 14 15 16 17 17 17 15 14 15 17 18 19 18 16 14 12 11 9 8 6 4
6 6 6 5 4 5 6 7 7 7 8 8 9 11 11 11 12 11 12 11 11 11 12 13 12 10 11 13 15 17 16 14 13 13 13 12 11 9 8 7 6 6 6 6 6 5 5 5 5 6 6 5 4 4 5 7 8 9 9 11 13 13 13 14 14 14 15 16 15 14 12 12 13 15 16 16 15 14 13 12 12 11 10 10 9
7 6 6 6 5 5 6 7 8 7 7 7 8 10 10 12 13 13 14 14 13 12 11 11 12 11 11 12 11 11 12 12 11 10 9 7 6 6 6 6 6 5 6 6 6 6 6 6 6 5 5 4 4 4 6 8 8 7 6 10 12 11 14 15 14 15 17 17 15 12 11 11 12 13 14 15 15 16 17 17 18 18 18 17 16
9 7 7 6 6 5 4 6 8 8 8 9 9 8 8 9 10 10 12 12 10 10 9 9 9 8 8 8 8 9 10 9 8 6 5 4 4 6 6 6 5 5 6 6 7 7 6 6 5 4 4 3 3 4 5 7 6 5 6 10 10 10 13 13 14 16 18 19 18 16 15 14 15 17 18 20 21 23 24 24 25 26 25 25 24
10 8 8 6 6 6 4 5 6 7 8 8 7 6 6 7 6 5 6 6 6 6 6 6 6 6 7 7 7 7 6 6 5 5 4 5 5 6 5 5 5 6 7 8 8 7 7 6 4 3 2 2 3 4 5 5 5 5 7 9 9 10 10 10 13 15 17 21 24 22 22 22 23 24 26 28 29 29 30 30 31 31 31 31 30
11 9 8 7 6 5 4 4 3 4 6 6 5 4 4 4 3 3 3 3 3 4 4 5 6 6 7 6 4 3 4 3 4 5 5 5 5 5 4 5 7 8 9 9 9 8 7 5 5 4 2 4 5 5 6 6 5 6 8 8 9 10 10 10 12 16 20 25 28 28 28 29 30 31 32 33 33 33 33 33 33 32 32 31 30
13 11 9 9 7 4 3 2 2 2 4 4 3 3 3 3 2 1 1 1 1 3 4 5 5 4 3 2 2 3 3 4 6 6 5 5 5 5 6 7 8 8 8 8 7 6 5 5 5 5 5 6 6 6 6 7 7 7 7 7 8 11 13 14 17 21 25 29 31 32 32 32 33 34 34 34 34 33 33 32 32 31 31 29 28
14 13 11 10 8 4 3 2 1 3 4 4 4 4 4 4 3 2 1 1 2 3 3 2 3 3 3 4 4 4 5 7 6 5 5 6 7 7 8 8 8 7 7 6 6 5 4 4 3 3 5 7 7 6 6 7 7 7 7 8 10 14 17 20 24 26 29 31 33 33 34 34 35 35 35 35 34 34 33 33 32 31 30 29 28
16 15 13 11 9 7 5 4 3 4 5 5 5 6 6 6 5 3 2 1 2 1 3 5 6 5 4 4 5 6 6 7 6 5 7 8 9 9 8 8 6 5 6 6 6 5 5 5 4 4 4 6 6 6 7 8 8 8 9 12 14 16 19 24 28 29 30 32 34 35 35 35 36 36 36 36 36 36 35 34 33 33 32 31 30
18 17 15 13 11 9 7 6 5 5 5 6 6 6 7 6 5 4 3 3 4 6 8 8 8 7 6 6 7 8 7 7 7 8 9 10 10 9 7 7 6 4 6 7 5 4 5 5 6 6 7 6 6 7 9 9 10 12 15 18 19 21 25 28 31 33 33 34 35 36 36 37 37 38 38 38 38 38 37 37 36 35 35 34 34
19 18 16 14 13 11 9 7 6 6 6 7 7 7 7 7 7 6 7 7 9 11 11 11 10 9 9 8 8 8 8 8 9 9 10 10 9 8 6 7 6 5 6 6 5 5 6 6 6 8 10 9 10 11 11 12 17 19 19 21 22 25 30 32 33 35 35 36 37 37 38 39 40 41 41 41 41 41 40 40 40 39 39 38 38
20 19 18 16 14 12 10 9 7 7 7 7 8 8 8 8 8 9 10 11 13 13 13 12 12 11 10 9 8 8 9 9 9 10 10 10 9 9 7 7 7 7 7 6 7 8 8 7 8 11 13 12 15 17 17 19 22 23 22 24 26 29 32 33 34 35 36 37 39 40 42 43 43 43 44 44 44 44 44 44 43 43 43 42 43
21 20 19 17 15 13 12 10 8 8 8 8 8 9 9 9 10 11 12 13 14 14 13 12 11 11 10 9 10 10 10 10 10 11 11 10 10 9 8 7 8 8 9 9 10 11 11 10 11 14 16 18 20 22 24 26 27 26 27 29 30 32 34 35 35 35 35 37 38 41 43 43 44 45 45 46 46 46 46 46 45 45 45 44 45
22 22 20 19 17 14 13 12 10 8 8 9 9 9 9 10 11 12 13 14 14 13 12 10 10 10 11 11 11 11 11 12 12 12 12 12 11 11 10 9 10 11 12 12 12 14 14 14 16 17 19 22 23 24 25 26 26 26 28 29 30 32 33 34 34 33 34 36 37 39 40 40 42 44 45 45 45 45 45 45 44 44 44 44 45
22 22 21 20 18 16 14 13 12 10 9 9 9 8 9 10 11 13 13 12 12 12 10 9 10 11 12 13 13 13 13 14 14 14 14 15 15 15 15 14 15 16 17 17 17 17 18 18 19 21 22 23 24 25 23 22 24 25 27 30 32 33 33 34 35 35 35 36 35 36 37 39 40 42 43 43 42 42 43 43 42 42 42 42 43
23 23 22 21 19 17 15 14 13 12 10 9 9 8 9 10 11 13 12 11 11 11 10 10 11 12 13 14 15 15 16 16 17 18 19 20 22 21 22 23 22 22 24 24 23 22 22 22 22 24 26 26 27 27 24 24 26 27 29 33 35 36 37 39 40 39 38 37 36 37 39 40 40 40 40 40 40 41 41 41 41 40 40 41 42
23 23 22 21 20 19 16 15 15 14 13 11 10 10 10 10 11 12 11 11 11 11 11 12 13 14 15 15 16 18 19 20 20 21 22 24 27 28 28 30 29 27 27 27 26 26 26 25 25 28 31 31 30 29 29 30 31 31 32 34 35 35 37 38 38 38 39 39 39 39 39 40 39 38 39 38 38 39 40 40 40 40 40 40 41
22 23 22 21 21 19 17 16 16 16 15 14 13 13 12 12 13 13 13 12 12 12 13 14 15 17 18 17 18 19 21 22 23 24 25 26 29 33 33 33 33 32 30 29 30 30 29 29 30 32 35 35 35 35 35 36 35 35 37 37 36 34 34 34 34 35 36 37 37 37 38 39 39 39 40 39 37 38 39 39 39 39 39 39 39
21 22 22 21 21 20 18 17 17 17 17 16 15 15 15 15 15 15 15 14 14 15 17 17 18 19 20 20 22 23 23 24 26 28 30 30 30 33 34 35 35 35 35 35 34 34 33 34 34 34 35 37 38 37 36 37 39 40 41 39 36 33 32 32 33 34 35 35 35 36 38 38 38 38 38 37 36 36 38 38 37 37 37 38 38
20 21 22 21 21 20 19 18 18 19 19 18 18 17 17 17 17 17 17 17 17 19 20 20 19 20 22 24 25 26 27 26 26 28 31 32 31 31 33 36 36 35 35 36 36 36 36 37 36 35 36 37 37 37 38 40 41 40 38 36 34 32 31 32 34 35 34 34 33 34 35 35 35 35 35 36 35 36 38 37 36 36 36 37 38
18 20 22 21 21 20 20 19 19 19 19 20 20 20 19 19 20 20 20 20 20 21 21 20 21 21 24 26 28 28 28 29 29 30 30 31 31 30 31 35 36 35 35 35 36 36 37 38 38 38 37 37 38 39 40 39 38 37 37 36 36 34 34 35 36 35 34 34 33 32 32 32 34 36 36 36 35 35 37 37 37 36 35 36 37
16 19 21 22 21 20 20 19 19 20 20 20 21 21 22 22 22 22 22 22 22 22 21 21 22 23 24 26 28 29 29 31 32 33 33 32 32 31 31 32 33 33 33 33 33 34 37 38 38 39 39 40 40 40 39 39 39 39 40 40 41 39 39 38 37 35 34 34 34 33 32 31 33 35 35 34 33 31 32 35 35 34 34 35 36
14 17 20 22 21 20 20 20 19 20 20 20 21 21 22 22 23 23 23 22 23 23 23 23 25 27 27 27 27 27 29 31 32 33 33 33 34 34 33 31 31 31 31 32 32 34 37 39 40 41 41 39 37 36 37 38 39 39 41 42 43 42 41 40 39 38 37 36 36 34 33 31 30 30 32 33 32 30 31 31 31 32 33 33 33
12 14 18 21 21 20 20 20 19 20 20 21 21 21 22 22 22 23 22 22 22 23 23 24 26 27 27 28 29 29 31 31 32 33 33 32 33 33 32 33 34 34 33 33 33 34 35 38 40 40 40 39 38 38 38 37 38 39 39 40 40 40 41 41 41 40 38 38 37 34 34 32 29 28 28 31 32 32 32 30 29 31 33 32 31
10 12 15 19 21 21 20 19 19 19 20 20 21 22 22 23 23 23 23 23 23 24 24 25 26 26 25 27 29 30 31 31 33 34 34 33 32 32 33 34 35 35 35 35 35 35 36 37 37 35 36 39 40 41 42 40 40 41 40 39 40 40 40 38 38 38 37 37 38 36 36 35 31 29 29 30 32 33 33 31 30 31 31 30 29
8 10 12 16 19 20 20 19 19 19 19 20 21 22 23 23 24 24 24 25 25 25 26 26 26 27 27 28 29 30 30 30 31 32 32 32 32 33 34 33 33 33 34 35 36 36 38 38 38 38 39 39 39 40 41 41 42 41 40 40 39 38 37 35 35 36 36 36 36 36 36 34 31 31 32 31 29 30 30 30 31 30 29 29 28
6 8 10 13 16 18 20 20 19 18 19 20 21 22 23 24 25 25 26 26 26 26 26 27 26 27 28 29 28 28 29 29 29 29 30 31 31 32 32 31 32 33 33 34 36 37 38 38 39 40 39 39 39 39 39 39 39 39 38 38 37 36 36 35 35 35 34 34 35 35 35 33 31 31 32 30 26 26 28 29 29 28 27 27 26
Wind_Direction
210 210 208 213 213 216 219 215 216 220 222 229 237 238 238 237 238 241 248 259 269 273 274 272 273 273 264 256 263 271 276 279 272 264 269 279 290 297 303 307 305 302 306 308 308 310 312 314 308 296 286 281 280 281 284 290 296 298 297 295 294 294 294 293 291 291 293 294 296 299 301 301 301 300 302 305 301 290 284 282 281 283 287 291 296
211 212 209 214 215 216 219 216 217 222 223 227 233 235 235 236 232 232 250 265 271 273 268 264 265 260 247 249 259 263 266 278 280 270 272 285 296 298 300 302 303 303 305 305 304 303 302 306 302 293 280 271 281 283 288 296 301 302 299 297 296 295 293 292 293 292 293 293 294 300 303 303 304 304 304 305 302 290 284 284 283 287 294 298 300
211 212 213 217 219 219 219 219 221 225 228 230 231 232 233 233 230 242 264 268 269 269 261 257 254 244 239 246 253 255 258 275 284 281 279 287 294 295 298 299 300 300 302 299 298 295 290 291 288 289 279 267 281 283 293 306 312 312 307 301 298 299 292 285 288 288 287 287 292 299 304 306 307 307 304 302 300 292 287 289 291 295 297 298 298
214 226 233 225 223 224 224 225 227 229 233 236 232 230 230 230 234 249 258 259 265 268 259 252 250 244 244 248 250 254 265 278 282 287 285 286 289 293 297 299 298 297 298 294 292 289 282 281 282 290 283 269 271 273 298 320 330 329 322 306 300 303 289 282 290 291 292 293 296 301 306 310 310 307 303 300 298 294 291 294 297 298 297 296 294
230 238 236 223 223 227 230 232 233 233 235 238 230 223 223 227 235 238 240 251 263 268 258 244 246 245 244 247 254 264 278 285 284 290 291 292 292 293 297 298 297 296 297 291 287 283 275 276 282 291 281 269 266 260 312 333 339 338 333 318 299 292 284 295 305 306 305 304 302 302 304 309 309 304 301 299 298 296 298 302 302 300 297 293 290
235 233 226 216 217 225 232 236 236 235 235 233 223 218 222 228 234 237 242 253 262 264 254 243 243 241 245 261 274 279 287 287 287 298 304 302 299 298 298 297 297 296 295 289 279 277 279 278 278 282 271 272 263 252 339 338 338 338 333 324 303 283 284 298 308 311 310 308 304 300 301 304 303 298 294 296 302 305 308 308 305 299 294 291 290
225 223 221 218 222 233 239 238 236 236 235 228 223 226 230 229 238 252 254 253 253 249 240 238 236 237 260 286 286 290 296 293 296 311 312 306 300 295 294 295 298 295 293 293 278 270 278 278 280 286 279 270 249 282 336 341 339 338 328 315 307 293 288 296 304 308 309 307 302 299 301 300 298 293 292 300 307 309 308 305 301 296 293 292 291
234 233 237 239 244 250 249 244 237 235 234 230 231 232 228 227 244 263 255 244 237 233 229 226 230 245 271 282 285 294 298 295 304 313 310 301 292 288 292 293 291 287 291 298 283 269 268 266 278 289 281 264 263 315 335 342 340 339 327 306 305 302 295 298 300 301 301 302 302 302 304 302 297 293 296 302 304 303 302 299 295 292 291 291 290
237 240 246 249 252 253 250 249 241 235 235 235 234 226 221 228 246 261 242 231 229 230 233 239 252 267 277 282 287 294 295 295 304 309 302 288 277 284 298 295 287 282 287 291 281 271 264 259 272 286 280 263 284 314 327 336 338 337 331 316 306 301 295 295 296 295 296 300 305 308 308 305 298 295 296 299 299 297 295 292 289 288 288 288 287
227 228 236 241 245 247 247 248 243 240 239 239 234 226 231 238 247 258 234 223 226 229 239 254 265 275 281 281 281 287 292 297 304 303 293 276 270 290 300 300 296 286 282 281 277 267 259 257 265 278 275 269 286 302 314 327 334 333 330 325 312 308 305 299 298 298 304 312 315 314 310 305 299 298 299 298 295 291 289 286 285 285 285 285 285
244 241 241 241 240 243 245 244 242 242 243 244 238 231 241 251 256 261 247 230 230 234 242 251 262 276 282 279 279 287 291 296 299 290 277 262 271 292 294 295 299 293 279 276 275 263 252 251 259 268 268 273 283 293 309 323 329 328 325 320 306 305 316 317 312 312 316 320 321 316 310 306 303 302 299 294 290 289 291 289 288 287 286 284 284
252 252 252 252 255 257 258 249 240 242 247 248 244 239 242 254 263 266 263 256 253 255 257 259 269 279 279 276 282 291 293 293 287 278 275 271 272 287 289 286 297 298 280 268 269 263 255 255 263 270 271 277 281 292 311 321 323 321 318 313 302 297 302 307 310 314 317 320 321 318 311 306 302 298 293 288 288 292 294 293 291 289 288 286 286
251 252 252 253 256 255 257 255 245 246 252 252 250 246 244 251 261 266 269 267 265 266 269 273 277 276 272 273 286 294 291 294 289 277 273 280 283 286 287 284 293 292 274 262 260 261 264 267 274 279 282 284 285 297 310 314 314 314 312 309 302 293 293 296 300 305 309 313 318 317 308 300 293 288 285 285 288 292 293 293 292 290 289 289 290
244 244 247 251 252 247 243 243 246 251 253 253 249 243 247 250 253 260 265 267 264 263 267 273 273 266 264 271 290 294 288 296 298 279 261 275 288 286 286 286 286 279 268 264 260 256 263 274 282 285 288 288 290 298 305 308 309 310 310 305 296 287 286 291 293 297 301 307 310 308 300 291 284 282 284 287 289 291 293 293 292 291 292 292 292
238 240 245 246 246 240 233 234 241 251 252 253 252 242 247 248 241 246 250 253 254 251 255 257 257 260 266 268 276 287 287 292 299 287 272 282 290 285 278 273 270 266 265 265 256 249 264 278 283 285 287 289 293 299 303 305 306 307 305 298 287 281 283 287 291 295 298 299 296 294 294 292 289 288 288 289 291 293 294 294 293 292 292 292 292
238 242 239 237 243 236 230 232 234 246 249 245 247 240 244 244 229 235 237 238 238 233 239 243 246 258 272 275 268 275 284 285 289 287 283 286 289 288 279 267 260 259 260 258 252 256 272 284 289 291 292 295 298 300 302 303 305 305 300 292 283 282 284 288 292 293 293 290 288 291 298 301 300 297 294 295 295 297 296 294 294 292 292 293 294
242 243 232 229 241 235 229 225 226 245 246 238 239 228 229 229 222 235 242 238 237 237 243 246 248 249 256 265 259 260 271 274 279 280 279 279 281 286 285 274 264 260 260 257 257 265 276 287 292 295 296 298 299 300 303 305 305 301 297 292 289 289 289 290 290 290 290 291 292 295 300 302 302 300 300 300 300 299 299 296 295 294 295 296 298
256 260 247 247 245 235 233 209 196 229 242 236 232 218 212 219 228 239 244 236 234 245 256 254 247 242 237 242 248 253 260 264 268 272 273 275 278 282 284 278 267 263 263 261 262 267 276 285 289 292 294 295 298 301 304 305 303 300 298 298 299 297 292 290 291 294 295 296 299 302 302 302 301 302 302 303 303 302 300 297 296 296 298 300 301
290 287 275 273 264 237 221 174 168 191 223 236 233 224 212 212 229 242 247 243 236 239 257 261 249 239 235 241 247 251 259 264 265 266 270 275 279 279 276 269 260 259 262 264 267 271 279 287 290 292 293 295 297 300 301 301 303 304 304 306 307 300 295 295 297 297 296 299 305 307 308 306 306 307 307 307 306 305 302 300 301 302 304 303 300
303 292 287 289 284 237 201 167 187 199 211 237 247 245 238 229 228 243 246 241 238 237 244 255 250 239 237 244 249 253 261 269 269 264 266 272 276 282 283 271 262 265 271 276 280 285 290 293 293 294 295 296 298 297 295 300 309 312 312 311 309 303 303 304 302 301 301 304 307 310 313 312 312 310 309 310 310 310 309 310 309 309 309 307 303
313 293 287 292 282 232 214 187 205 220 221 241 252 243 254 254 236 230 231 232 245 246 245 251 253 248 242 242 244 249 255 264 275 271 265 268 273 284 296 297 295 294 293 293 293 294 295 295 295 298 299 300 301 303 304 309 320 323 319 316 317 321 323 322 318 316 316 316 316 317 317 314 313 313 316 318 318 318 316 316 314 314 315 314 314
314 286 274 274 260 233 229 204 208 232 240 245 234 222 249 267 248 236 234 246 257 258 256 254 250 251 252 250 247 248 253 262 280 288 280 278 281 287 295 303 310 309 302 298 297 298 299 301 303 303 301 304 315 332 335 334 342 340 338 342 345 349 347 343 339 337 332 327 326 324 321 320 320 322 325 325 325 323 320 319 320 321 323 326 331
327 306 287 271 257 238 236 225 212 223 231 233 232 224 223 216 220 235 244 254 256 253 255 250 245 245 249 261 267 260 262 272 284 292 294 294 295 297 298 301 303 304 304 304 307 307 309 309 307 305 308 343 10 17 10 9 12 2 360 359 358 359 355 350 348 345 341 336 333 329 325 326 328 331 332 330 329 327 325 326 328 332 335 342 358
344 325 300 283 274 259 250 246 231 221 225 239 249 246 232 219 216 229 245 247 242 245 252 251 252 250 250 262 276 275 280 289 292 294 295 295 297 300 301 298 298 305 310 315 319 319 318 315 312 330 16 38 42 39 30 27 18 13 11 6 2 357 353 353 352 350 346 343 340 336 331 330 333 336 335 333 333 333 334 337 342 347 350 3 31
352 333 320 302 285 275 263 258 251 233 229 245 259 254 244 246 250 251 256 251 248 257 260 264 277 282 264 261 275 286 292 293 292 295 297 300 302 301 301 301 311 327 330 333 337 336 338 344 4 33 42 45 47 38 27 24 20 18 15 8 4 360 359 359 354 351 350 347 345 344 340 337 337 336 336 338 341 346 348 353 1 4 11 32 59
354 339 331 317 289 273 266 265 258 239 231 244 259 257 254 257 261 261 263 269 279 278 270 277 287 286 271 266 275 286 290 292 295 301 305 307 309 313 325 343 360 3 3 9 13 18 32 37 40 41 40 41 34 23 20 18 20 25 15 4 5 2 359 358 352 353 354 352 354 357 354 345 341 343 347 353 359 5 14 24 31 38 49 63 75
360 352 340 326 311 283 265 265 257 241 234 244 255 259 259 260 264 266 269 277 284 283 281 287 288 282 277 275 282 290 294 300 306 313 318 323 337 2 20 31 37 37 35 37 35 41 46 41 43 41 41 40 26 24 27 24 28 39 16 355 3 360 353 358 0 359 360 2 10 18 14 6 5 10 16 22 29 39 49 55 57 61 66 71 76
9 2 355 342 323 303 272 260 254 244 236 237 245 247 250 259 262 264 272 281 285 285 287 288 284 279 280 285 292 299 305 313 323 337 355 16 36 44 46 45 42 43 39 33 33 39 36 31 37 39 46 47 27 28 35 36 44 44 6 357 4 359 357 7 9 5 8 15 22 30 34 36 38 40 45 50 56 62 65 66 66 67 69 71 73
17 8 3 349 321 313 302 276 256 242 234 232 234 237 244 251 251 255 277 286 280 282 286 285 286 285 290 296 300 311 325 340 358 24 53 71 71 66 59 45 30 30 31 29 28 28 23 20 21 20 33 20 355 5 19 27 34 15 1 4 4 1 9 16 15 18 26 30 33 39 44 49 53 58 62 63 66 66 67 67 68 68 68 69 70
21 17 8 354 337 327 324 304 276 237 225 229 225 228 232 230 238 255 278 281 272 286 295 292 294 295 299 304 322 353 11 28 54 70 79 80 68 59 53 35 27 26 28 31 27 20 19 9 359 3 340 322 333 345 357 7 15 9 6 11 8 15 30 31 32 44 47 45 48 52 54 59 62 65 66 66 66 65 65 65 65 67 68 69 70
22 22 12 1 2 354 344 334 300 199 194 206 194 194 192 184 206 211 260 281 296 302 302 303 306 313 332 13 55 70 85 93 95 90 78 62 45 39 40 33 27 25 27 31 24 16 14 359 356 1 331 326 335 335 350 11 18 11 13 23 29 40 50 54 60 63 59 56 58 62 63 64 64 65 64 64 64 63 63 62 63 64 66 68 70
23 22 18 12 15 22 35 63 103 147 162 171 154 149 145 138 127 105 90 318 314 311 319 353 30 52 64 80 90 99 112 110 103 93 68 52 39 33 35 33 28 25 18 18 18 9 356 348 359 3 343 344 346 341 3 21 21 23 35 50 57 62 65 69 71 69 65 62 62 64 64 63 62 62 61 62 63 63 64 63 62 61 62 63 65
24 21 22 21 22 34 50 69 88 116 133 140 138 135 133 127 117 105 81 10 358 40 77 80 79 75 77 90 102 109 110 100 93 82 59 48 39 31 30 27 19 13 6 3 5 358 350 352 3 15 9 4 3 12 27 26 31 47 64 70 72 72 72 74 74 70 67 64 64 64 64 64 63 62 62 62 63 63 64 63 61 59 58 58 59
25 23 24 26 29 37 49 60 75 94 113 123 127 126 125 119 109 93 74 72 85 97 97 93 90 91 100 107 112 115 110 91 83 75 58 47 37 27 20 15 7 4 3 1 359 3 14 9 3 21 34 34 38 47 45 38 52 69 80 82 80 78 77 78 76 72 70 68 67 67 66 66 66 65 64 63 63 62 62 62 62 60 59 58 59
27 26 26 29 34 39 48 57 69 87 101 112 119 120 117 109 98 88 86 94 100 101 100 98 100 104 110 115 114 111 108 96 82 70 58 48 34 22 14 11 11 12 9 14 27 29 36 29 19 39 49 54 64 70 67 65 71 78 87 87 83 82 82 81 78 75 73 72 70 69 69 69 68 67 67 66 66 65 65 65 65 65 63 62 62
29 28 29 32 38 42 49 58 70 87 100 109 116 117 113 105 98 94 97 102 104 103 102 102 104 105 107 110 107 100 98 92 78 68 59 50 39 30 32 29 25 30 34 47 59 57 55 52 51 60 65 70 77 78 76 78 79 81 87 89 86 85 83 81 79 77 75 74 73 72 71 70 70 70 70 70 70 70 70 69 69 69 68 67 66
31 29 30 34 40 46 51 58 69 87 102 110 117 118 114 107 103 103 106 109 108 105 102 101 99 98 97 96 94 88 85 81 74 67 58 53 49 44 48 53 47 50 61 69 71 69 65 63 68 76 81 84 84 82 81 84 85 84 87 88 86 83 82 82 81 80 77 76 76 75 73 72 72 73 73 73 73 73 73 72 71 70 70 69 68
34 31 31 35 41 48 55 61 69 84 101 111 116 117 113 110 110 111 111 111 112 107 98 93 92 91 92 90 88 83 81 78 71 66 60 59 61 61 66 75 71 66 73 77 78 77 73 73 79 84 89 91 88 85 86 87 85 84 86 87 86 85 84 83 83 81 80 80 78 74 71 72 74 75 74 74 74 74 73 72 71 70 69 69 68
36 33 32 35 41 48 57 63 70 80 96 110 115 114 112 110 112 114 113 112 113 109 99 93 91 89 92 91 88 85 81 78 74 74 72 71 74 76 79 86 88 82 81 83 85 85 82 83 84 84 89 95 92 88 88 91 88 85 86 85 87 89 88 87 87 86 84 81 75 72 73 75 75 75 74 72 72 72 72 71 70 68 67 66 66
39 37 34 36 41 47 57 66 71 77 87 101 111 112 110 110 113 115 115 112 111 108 101 95 91 90 91 91 88 85 83 84 85 85 83 81 82 85 87 88 89 89 89 90 91 90 86 86 87 85 88 94 93 89 87 92 94 89 88 89 90 91 90 89 88 85 82 80 78 79 80 79 77 75 73 72 72 71 71 70 69 67 65 64 64
42 40 37 37 42 48 58 67 71 76 81 92 104 108 108 110 113 115 114 112 106 103 99 95 94 93 90 88 88 90 90 91 92 91 89 88 88 88 89 87 85 88 92 92 91 91 89 88 89 87 87 91 92 93 92 95 98 95 93 95 95 92 90 86 82 78 77 80 84 83 81 79 76 72 70 71 72 71 70 69 67 65 64 63 62
43 43 41 40 43 50 59 68 72 75 78 87 97 105 106 107 111 114 113 111 104 99 98 97 97 95 91 91 92 94 96 94 93 93 92 93 94 91 88 84 83 85 88 90 90 90 90 92 93 89 88 91 93 95 94 95 99 100 98 98 95 91 88 84 80 77 77 81 82 78 75 74 72 70 69 69 70 69 69 67 64 62 61 61 60
43 46 45 44 46 52 61 69 73 76 79 86 94 100 102 101 103 106 106 106 102 100 100 99 98 96 97 99 97 95 97 98 97 94 92 95 96 91 86 83 83 84 85 86 87 88 90 93 94 92 92 94 93 92 93 95 98 99 97 94 89 84 83 84 84 84 84 84 79 72 71 72 72 72 71 69 69 68 67 66 64 61 58 59 59
42 48 49 48 49 54 62 70 74 78 81 86 90 95 98 98 100 102 103 104 103 104 103 98 97 100 103 102 98 95 94 97 101 99 95 94 92 87 86 86 86 87 87 84 85 87 90 93 95 96 97 97 94 92 94 96 96 94 91 87 84 83 85 87 88 88 88 84 77 73 74 75 74 73 72 71 69 68 67 65 61 58 57 56 56
40 49 52 53 53 56 64 72 76 80 84 87 89 90 94 96 99 101 103 104 105 105 104 98 97 103 107 103 97 96 95 95 99 100 97 94 91 88 88 88 86 88 89 86 85 86 89 93 96 97 98 96 95 96 96 94 91 90 88 88 88 88 88 87 88 88 87 83 79 78 78 77 74 72 72 70 67 65 65 63 58 55 54 53 54
38 48 54 55 57 59 65 73 79 83 86 89 91 91 93 95 97 99 102 103 104 102 102 104 103 104 109 107 101 97 96 96 97 96 94 91 92 93 93 93 90 89 89 87 86 87 91 93 95 97 98 96 96 97 95 93 91 89 89 90 90 89 87 86 87 87 86 85 84 81 79 77 76 74 69 63 60 60 61 59 54 52 52 51 51
37 48 56 57 59 62 66 73 80 85 88 90 92 93 93 94 94 96 98 100 102 100 100 107 108 104 103 105 106 102 98 97 96 95 93 91 93 95 94 95 95 93 91 90 90 93 95 95 97 98 96 95 96 97 96 95 94 91 90 91 89 87 87 87 87 86 84 83 83 81 79 79 77 73 66 59 57 57 57 56 53 52 51 51 50
40 46 57 59 60 63 67 73 79 85 90 92 93 93 93 94 94 95 96 98 102 103 103 108 112 109 104 102 105 105 101 97 96 94 93 94 95 97 96 96 96 96 96 96 97 98 99 99 102 100 94 93 96 97 97 97 96 95 94 91 89 89 90 88 86 84 81 79 79 80 80 77 71 70 69 62 58 58 58 56 54 52 51 49 48
45 44 58 63 62 63 67 73 78 83 89 92 94 95 95 95 96 97 98 99 103 107 108 110 112 111 110 107 105 105 103 99 97 96 95 97 98 99 101 100 98 98 99 100 101 101 102 104 104 102 99 99 99 97 97 97 97 96 93 90 89 90 89 86 82 80 79 78 78 78 78 75 71 69 69 63 57 57 59 57 52 51 50 47 45
56 45 55 66 66 65 67 72 78 82 87 91 95 98 99 100 100 101 103 104 106 109 113 114 112 110 111 111 108 106 105 103 102 100 98 99 99 102 105 104 102 103 104 104 103 103 103 103 101 99 101 102 100 97 96 96 96 94 91 89 88 87 83 81 79 78 78 77 76 74 73 75 74 71 69 65 56 53 56 56 52 51 51 49 47
72 52 52 65 69 68 67 70 76 83 87 91 95 99 102 104 105 106 107 109 111 113 116 117 115 112 112 112 112 110 108 107 106 105 104 103 105 107 108 108 107 108 109 108 106 105 104 102 101 99 99 99 98 97 95 95 94 93 91 89 87 84 81 79 78 76 75 74 72 69 69 70 71 71 70 69 64 57 55 54 52 51 51 51 51
Height
10962 10962 10963 10963 10964 10965 10966 10966 10967 10968 10968 10969 10969 10970 10971 10971 10972 10972 10973 10973 10973 10972 10971 10971 10972 10972 10973 10973 10973 10972 10971 10970 10970 10970 10969 10967 10967 10966 10966 10965 10965 10964 10963 10963 10964 10965 10966 10967 10967 10965 10963 10963 10963 10964 10964 10963 10963 10961 10959 10956 10953 10951 10951 10951 10950 10948 10947 10946 10945 10943 10942 10943 10944 10945 10945 10945 10944 10944 10943 10942 10941 10940 10939 10937 10935
10962 10963 10963 10964 10964 10964 10965 10965 10966 10967 10967 10968 10969 10970 10970 10971 10972 10972 10973 10973 10972 10972 10971 10971 10972 10972 10973 10973 10972 10971 10970 10969 10969 10969 10968 10967 10966 10966 10965 10965 10964 10963 10962 10961 10961 10963 10964 10965 10966 10964 10962 10961 10962 10963 10963 10963 10961 10959 10957 10955 10952 10949 10949 10949 10949 10948 10946 10945 10944 10942 10940 10940 10941 10942 10943 10943 10942 10942 10942 10941 10940 10938 10937 10935 10933
10962 10963 10963 10964 10964 10964 10964 10965 10965 10966 10966 10967 10968 10969 10970 10970 10971 10972 10972 10972 10971 10971 10971 10971 10972 10972 10972 10972 10971 10970 10969 10969 10968 10968 10966 10966 10965 10965 10964 10964 10963 10962 10961 10960 10959 10960 10962 10963 10964 10964 10962 10962 10962 10962 10962 10962 10960 10958 10956 10953 10951 10948 10946 10946 10947 10946 10946 10945 10943 10941 10939 10938 10939 10939 10940 10941 10941 10941 10940 10939 10938 10937 10935 10933 10931
10961 10962 10963 10964 10964 10964 10964 10965 10965 10965 10965 10966 10967 10968 10969 10970 10971 10971 10971 10971 10970 10970 10970 10971 10971 10971 10971 10971 10970 10969 10968 10968 10968 10966 10965 10964 10964 10964 10963 10963 10961 10960 10960 10959 10958 10959 10960 10961 10961 10962 10962 10962 10961 10961 10960 10960 10959 10957 10955 10952 10950 10948 10945 10944 10944 10945 10945 10944 10943 10941 10939 10937 10937 10937 10938 10938 10939 10938 10938 10937 10936 10934 10933 10931 10929
10961 10961 10962 10963 10963 10964 10964 10964 10965 10965 10965 10965 10967 10968 10969 10969 10970 10969 10969 10969 10969 10970 10970 10970 10970 10970 10970 10969 10968 10967 10967 10967 10967 10965 10964 10963 10962 10962 10963 10962 10960 10959 10959 10958 10958 10958 10959 10959 10960 10960 10961 10961 10960 10959 10958 10958 10957 10955 10953 10952 10950 10948 10945 10943 10941 10942 10942 10942 10942 10942 10940 10939 10937 10936 10936 10936 10936 10936 10935 10934 10933 10932 10930 10928 10927
10961 10961 10962 10962 10963 10963 10963 10963 10964 10964 10964 10964 10965 10966 10967 10968 10968 10968 10968 10969 10969 10969 10969 10969 10969 10968 10968 10966 10965 10965 10966 10966 10966 10965 10963 10962 10961 10961 10961 10960 10959 10959 10958 10957 10957 10958 10958 10957 10958 10958 10959 10959 10959 10958 10956 10956 10955 10953 10952 10951 10950 10949 10946 10943 10940 10939 10939 10939 10940 10941 10941 10940 10939 10937 10936 10935 10934 10933 10933 10932 10931 10930 10928 10927 10925
10961 10961 10961 10961 10962 10962 10962 10962 10962 10962 10963 10963 10964 10965 10966 10966 10966 10966 10967 10968 10968 10969 10968 10968 10968 10966 10965 10964 10964 10965 10965 10966 10965 10964 10962 10961 10960 10959 10959 10959 10958 10958 10957 10957 10957 10957 10957 10956 10956 10956 10957 10957 10957 10956 10954 10954 10953 10952 10951 10950 10950 10948 10946 10943 10941 10938 10937 10937 10937 10939 10940 10940 10939 10938 10937 10936 10934 10932 10931 10930 10929 10928 10926 10925 10923
10960 10960 10961 10961 10960 10960 10960 10960 10960 10961 10961 10962 10963 10964 10965 10964 10964 10965 10965 10966 10967 10967 10967 10966 10965 10964 10963 10962 10962 10963 10963 10964 10964 10963 10962 10961 10960 10959 10958 10958 10957 10957 10957 10956 10956 10957 10956 10956 10955 10955 10955 10955 10954 10953 10952 10951 10951 10951 10950 10949 10948 10947 10945 10943 10941 10939 10937 10936 10936 10936 10937 10938 10938 10938 10937 10935 10934 10932 10930 10929 10927 10926 10924 10923 10921
10960 10960 10960 10960 10959 10959 10959 10959 10959 10959 10959 10960 10961 10962 10963 10963 10963 10963 10963 10964 10965 10965 10965 10964 10962 10962 10961 10960 10960 10960 10961 10963 10963 10962 10961 10960 10959 10958 10958 10957 10957 10956 10956 10956 10956 10956 10956 10955 10955 10954 10953 10953 10952 10950 10949 10950 10950 10950 10949 10948 10947 10946 10944 10942 10941 10939 10938 10937 10936 10935 10935 10935 10936 10936 10935 10934 10932 10931 10929 10928 10926 10925 10923 10921 10919
10959 10959 10959 10958 10958 10958 10958 10958 10958 10958 10958 10958 10960 10961 10962 10961 10961 10962 10962 10963 10964 10964 10964 10963 10961 10960 10960 10959 10959 10959 10960 10961 10961 10960 10960 10959 10959 10958 10958 10957 10956 10956 10956 10955 10955 10956 10955 10954 10954 10953 10952 10951 10949 10948 10948 10948 10948 10948 10948 10947 10946 10944 10943 10941 10940 10940 10939 10937 10936 10935 10934 10934 10934 10933 10933 10931 10930 10929 10928 10926 10925 10923 10922 10920 10918
10959 10958 10958 10957 10957 10957 10957 10957 10957 10957 10956 10957 10959 10961 10960 10959 10958 10959 10960 10961 10962 10961 10962 10961 10960 10960 10960 10960 10959 10959 10960 10960 10959 10959 10958 10958 10958 10958 10958 10957 10956 10956 10956 10955 10955 10955 10955 10954 10953 10951 10950 10949 10947 10946 10945 10945 10946 10946 10945 10946 10945 10944 10942 10940 10939 10938 10938 10937 10936 10935 10934 10933 10932 10931 10930 10929 10928 10927 10926 10925 10923 10922 10920 10919 10918
10958 10958 10957 10957 10956 10956 10956 10956 10956 10955 10955 10955 10957 10959 10959 10956 10955 10956 10957 10958 10959 10958 10959 10959 10960 10960 10960 10960 10959 10959 10959 10958 10958 10957 10957 10957 10957 10957 10957 10957 10956 10955 10955 10955 10955 10954 10954 10953 10952 10950 10949 10948 10946 10945 10943 10942 10943 10943 10943 10943 10943 10942 10940 10938 10937 10936 10936 10936 10935 10934 10933 10932 10930 10929 10928 10927 10926 10925 10923 10922 10921 10920 10919 10918 10917
10958 10958 10957 10957 10956 10956 10956 10956 10955 10954 10953 10954 10956 10957 10957 10956 10954 10954 10954 10955 10956 10956 10957 10958 10959 10959 10958 10959 10959 10959 10958 10957 10957 10956 10956 10956 10956 10956 10956 10956 10955 10955 10955 10955 10954 10954 10953 10952 10951 10949 10948 10947 10946 10943 10942 10941 10941 10941 10941 10940 10939 10939 10938 10936 10935 10934 10934 10934 10933 10933 10932 10931 10929 10928 10926 10925 10924 10923 10922 10920 10919 10918 10917 10916 10916
10958 10957 10957 10957 10956 10955 10955 10955 10954 10953 10953 10953 10954 10955 10955 10955 10953 10953 10953 10953 10954 10955 10956 10957 10957 10957 10957 10957 10958 10958 10957 10957 10956 10955 10955 10955 10955 10955 10956 10956 10956 10955 10955 10954 10954 10954 10952 10951 10950 10949 10948 10947 10945 10943 10941 10940 10939 10938 10938 10937 10936 10935 10935 10934 10933 10933 10933 10932 10932 10932 10931 10930 10928 10927 10925 10924 10923 10921 10920 10919 10918 10917 10916 10915 10915
10957 10957 10957 10956 10955 10954 10954 10955 10954 10953 10953 10953 10953 10953 10954 10953 10953 10952 10952 10952 10952 10953 10955 10956 10956 10956 10956 10956 10957 10957 10957 10956 10954 10954 10954 10954 10954 10955 10955 10955 10955 10955 10955 10954 10954 10953 10952 10951 10950 10948 10947 10945 10943 10942 10940 10938 10937 10936 10935 10934 10934 10933 10932 10932 10931 10931 10931 10931 10931 10930 10930 10928 10927 10926 10924 10923 10922 10920 10919 10918 10917 10916 10915 10914 10914
10956 10956 10956 10955 10954 10954 10954 10954 10954 10953 10953 10952 10952 10952 10953 10953 10952 10951 10951 10951 10952 10953 10954 10954 10955 10955 10956 10956 10957 10957 10956 10955 10954 10953 10953 10953 10953 10953 10953 10954 10954 10954 10954 10953 10952 10951 10950 10949 10947 10946 10944 10942 10941 10939 10938 10936 10935 10934 10933 10932 10931 10931 10930 10930 10929 10929 10929 10929 10929 10929 10928 10927 10926 10925 10923 10922 10921 10920 10918 10917 10916 10915 10914 10914 10913
10955 10955 10955 10954 10954 10954 10954 10955 10955 10953 10951 10951 10950 10951 10952 10952 10951 10950 10950 10951 10952 10952 10952 10953 10953 10954 10955 10955 10956 10956 10955 10954 10953 10952 10951 10952 10952 10952 10952 10952 10953 10953 10953 10952 10951 10950 10948 10947 10945 10943 10942 10940 10938 10936 10935 10933 10932 10932 10931 10930 10929 10929 10929 10928 10928 10928 10928 10928 10927 10927 10926 10925 10924 10923 10922 10921 10920 10919 10918 10916 10915 10914 10914 10913 10913
10955 10954 10954 10954 10954 10954 10954 10954 10955 10952 10948 10948 10948 10950 10951 10951 10950 10950 10950 10951 10952 10952 10952 10952 10952 10952 10953 10953 10954 10954 10954 10953 10952 10951 10950 10950 10950 10951 10951 10951 10951 10951 10951 10951 10950 10949 10947 10945 10944 10942 10940 10938 10936 10934 10933 10932 10931 10930 10929 10929 10928 10928 10927 10927 10927 10927 10927 10926 10926 10926 10925 10925 10924 10922 10921 10920 10919 10918 10917 10916 10915 10914 10913 10913 10912
10954 10954 10954 10953 10954 10955 10954 10954 10954 10950 10946 10946 10947 10948 10949 10949 10949 10949 10950 10950 10951 10951 10951 10951 10950 10950 10951 10952 10952 10953 10953 10953 10952 10951 10949 10948 10948 10949 10950 10950 10950 10949 10949 10949 10948 10947 10945 10944 10942 10941 10939 10937 10935 10934 10932 10931 10930 10929 10929 10928 10928 10927 10927 10927 10926 10926 10926 10926 10926 10925 10925 10924 10923 10922 10921 10920 10919 10918 10917 10915 10914 10913 10913 10912 10911
10955 10954 10953 10952 10953 10954 10954 10953 10953 10951 10948 10947 10946 10946 10946 10946 10947 10948 10949 10949 10949 10949 10949 10949 10949 10949 10950 10951 10951 10951 10952 10953 10952 10950 10949 10948 10947 10947 10948 10949 10949 10948 10947 10946 10946 10945 10943 10942 10940 10939 10937 10936 10934 10933 10932 10931 10930 10930 10929 10928 10928 10928 10927 10927 10926 10926 10926 10926 10926 10925 10925 10924 10923 10922 10921 10920 10919 10918 10916 10915 10914 10913 10912 10911 10910
10955 10954 10952 10952 10953 10953 10953 10952 10952 10951 10949 10948 10946 10945 10944 10942 10944 10946 10947 10947 10947 10947 10947 10948 10948 10948 10948 10948 10949 10950 10951 10951 10951 10950 10949 10947 10946 10945 10944 10945 10945 10945 10945 10944 10943 10942 10941 10940 10939 10938 10936 10935 10934 10933 10932 10932 10931 10930 10930 10929 10929 10928 10928 10927 10927 10927 10927 10926 10926 10926 10925 10924 10923 10922 10921 10920 10918 10917 10916 10914 10913 10912 10911 10910 10909
10955 10954 10952 10952 10953 10953 10952 10951 10951 10950 10949 10948 10946 10945 10944 10942 10942 10943 10943 10944 10944 10945 10946 10947 10947 10947 10947 10947 10947 10948 10949 10950 10949 10949 10948 10947 10946 10944 10943 10942 10942 10943 10943 10942 10941 10940 10939 10939 10938 10937 10936 10935 10934 10934 10933 10933 10932 10932 10931 10930 10930 10929 10929 10928 10928 10928 10927 10927 10927 10926 10925 10924 10923 10922 10921 10919 10918 10916 10915 10913 10912 10910 10909 10908 10908
10954 10953 10952 10952 10953 10953 10952 10950 10950 10949 10949 10948 10946 10946 10947 10945 10944 10943 10942 10943 10943 10944 10946 10946 10945 10945 10945 10946 10946 10946 10947 10948 10948 10948 10947 10946 10945 10944 10943 10942 10942 10942 10941 10940 10939 10939 10938 10938 10937 10936 10936 10935 10935 10935 10934 10934 10933 10933 10932 10932 10931 10930 10930 10929 10929 10928 10928 10927 10927 10926 10925 10924 10923 10922 10920 10919 10917 10915 10914 10912 10910 10909 10908 10907 10907
10953 10952 10951 10951 10952 10951 10950 10949 10949 10949 10949 10948 10947 10948 10948 10947 10947 10946 10944 10943 10943 10944 10945 10945 10944 10944 10944 10945 10945 10945 10945 10946 10946 10946 10946 10946 10945 10944 10943 10942 10942 10941 10940 10939 10939 10938 10938 10938 10937 10937 10937 10936 10936 10936 10935 10935 10934 10933 10933 10933 10932 10931 10931 10930 10929 10928 10928 10927 10926 10925 10924 10923 10922 10921 10920 10918 10916 10914 10913 10911 10910 10908 10908 10907 10906
10953 10951 10950 10950 10950 10950 10949 10948 10948 10948 10948 10948 10947 10947 10948 10947 10947 10947 10945 10943 10943 10944 10945 10944 10944 10943 10943 10944 10944 10944 10944 10944 10945 10945 10945 10945 10944 10944 10943 10942 10941 10940 10940 10939 10939 10939 10939 10938 10938 10938 10937 10937 10937 10936 10936 10935 10935 10935 10934 10934 10933 10932 10931 10930 10929 10928 10927 10926 10924 10923 10923 10922 10921 10920 10918 10917 10915 10913 10912 10911 10909 10908 10907 10907 10906
10953 10952 10951 10950 10950 10950 10949 10947 10947 10948 10948 10948 10947 10946 10946 10946 10946 10946 10945 10944 10943 10944 10945 10944 10943 10943 10943 10943 10943 10943 10943 10944 10944 10944 10944 10944 10943 10943 10942 10941 10941 10941 10940 10940 10940 10939 10939 10939 10938 10938 10938 10938 10937 10936 10936 10936 10935 10935 10935 10934 10934 10933 10931 10930 10929 10927 10926 10924 10922 10921 10920 10920 10919 10918 10917 10916 10914 10913 10912 10911 10909 10908 10908 10907 10907
10955 10953 10951 10950 10950 10950 10949 10948 10948 10948 10948 10947 10947 10946 10945 10945 10945 10946 10945 10945 10944 10944 10944 10944 10944 10944 10943 10943 10943 10943 10943 10943 10943 10943 10943 10943 10942 10942 10942 10942 10941 10941 10941 10940 10940 10939 10939 10939 10939 10938 10938 10937 10937 10937 10937 10936 10936 10935 10935 10935 10934 10933 10932 10930 10929 10927 10926 10924 10921 10919 10918 10918 10918 10917 10916 10915 10915 10914 10913 10912 10911 10910 10909 10909 10909
10955 10954 10952 10950 10949 10949 10948 10948 10948 10948 10948 10948 10947 10946 10946 10946 10946 10946 10945 10945 10945 10945 10945 10944 10944 10944 10944 10944 10944 10943 10943 10943 10943 10942 10942 10942 10942 10942 10942 10942 10942 10942 10941 10941 10940 10939 10939 10939 10939 10938 10938 10937 10937 10937 10937 10937 10936 10936 10936 10935 10935 10934 10933 10931 10930 10928 10927 10925 10922 10919 10918 10918 10917 10917 10917 10917 10916 10916 10915 10914 10913 10912 10912 10912 10912
10956 10955 10953 10951 10949 10948 10948 10947 10947 10947 10948 10948 10948 10947 10947 10946 10947 10947 10946 10946 10946 10946 10946 10946 10945 10945 10945 10945 10944 10944 10944 10943 10943 10942 10942 10942 10942 10942 10942 10942 10942 10942 10941 10940 10940 10940 10940 10939 10939 10938 10938 10938 10938 10938 10938 10937 10937 10936 10936 10936 10935 10935 10933 10931 10930 10929 10928 10926 10923 10921 10920 10919 10919 10919 10919 10919 10919 10919 10918 10917 10916 10915 10915 10914 10915
10957 10956 10954 10953 10950 10948 10947 10947 10947 10947 10947 10947 10947 10947 10947 10947 10947 10947 10947 10947 10947 10947 10947 10946 10946 10946 10946 10945 10945 10945 10944 10944 10943 10943 10943 10943 10943 10943 10943 10943 10942 10941 10941 10940 10940 10940 10940 10940 10939 10939 10938 10939 10939 10939 10938 10938 10937 10936 10936 10936 10935 10935 10933 10932 10931 10931 10929 10927 10924 10923 10922 10922 10922 10922 10922 10922 10921 10921 10921 10920 10920 10919 10918 10917 10917
10958 10957 10956 10954 10952 10950 10949 10948 10947 10947 10947 10947 10948 10948 10948 10947 10947 10948 10948 10948 10947 10947 10947 10946 10946 10946 10946 10946 10946 10946 10945 10945 10945 10944 10944 10944 10944 10944 10943 10942 10941 10941 10941 10941 10941 10940 10940 10941 10940 10940 10939 10940 10939 10939 10939 10938 10937 10936 10936 10937 10936 10935 10934 10933 10933 10932 10930 10928 10926 10925 10925 10925 10925 10925 10924 10923 10923 10923 10923 10922 10922 10922 10922 10921 10921
10959 10958 10957 10955 10953 10952 10950 10950 10949 10949 10949 10948 10949 10949 10949 10949 10948 10948 10949 10948 10948 10947 10947 10947 10947 10947 10947 10948 10948 10948 10947 10946 10946 10946 10946 10945 10945 10944 10943 10942 10942 10941 10942 10942 10942 10942 10942 10942 10942 10941 10941 10940 10940 10940 10939 10938 10938 10937 10937 10937 10937 10936 10935 10935 10934 10933 10931 10930 10928 10928 10928 10928 10927 10927 10926 10925 10924 10924 10924 10924 10925 10925 10925 10925 10924
10960 10959 10958 10956 10955 10953 10952 10951 10951 10950 10950 10950 10950 10950 10950 10950 10950 10950 10949 10949 10949 10948 10948 10948 10948 10948 10949 10949 10950 10950 10949 10948 10948 10948 10947 10946 10945 10944 10944 10943 10943 10942 10942 10942 10942 10942 10942 10942 10942 10942 10941 10941 10940 10940 10940 10939 10939 10938 10939 10938 10938 10937 10937 10937 10936 10935 10933 10932 10931 10931 10931 10930 10929 10929 10928 10928 10927 10926 10926 10926 10927 10928 10929 10929 10928
10962 10960 10959 10957 10956 10954 10953 10952 10951 10951 10951 10951 10951 10951 10951 10951 10951 10951 10950 10950 10950 10949 10949 10950 10950 10950 10951 10951 10952 10952 10952 10951 10951 10950 10948 10947 10946 10946 10945 10944 10944 10943 10943 10942 10942 10942 10942 10942 10942 10942 10942 10941 10941 10941 10941 10941 10940 10940 10940 10940 10940 10939 10939 10939 10939 10937 10935 10934 10934 10934 10933 10932 10931 10931 10931 10931 10930 10929 10929 10929 10929 10930 10931 10931 10930
10964 10962 10961 10959 10957 10955 10954 10953 10952 10952 10952 10952 10952 10952 10952 10952 10952 10952 10952 10952 10951 10951 10952 10952 10952 10952 10953 10953 10953 10954 10954 10953 10952 10951 10949 10948 10948 10947 10947 10946 10945 10944 10943 10943 10942 10942 10942 10942 10943 10943 10943 10943 10943 10943 10943 10943 10943 10943 10943 10943 10943 10943 10943 10942 10940 10939 10937 10937 10937 10937 10936 10935 10934 10934 10934 10934 10933 10933 10933 10932 10932 10932 10933 10933 10933
10966 10964 10963 10961 10959 10957 10956 10955 10954 10954 10954 10954 10954 10954 10954 10954 10954 10954 10954 10954 10954 10954 10954 10954 10954 10955 10955 10955 10955 10955 10955 10954 10953 10952 10951 10950 10950 10949 10948 10947 10945 10944 10944 10943 10943 10943 10942 10943 10944 10944 10945 10945 10945 10945 10945 10946 10946 10946 10946 10946 10946 10946 10945 10944 10942 10941 10941 10941 10940 10939 10939 10938 10937 10938 10938 10937 10936 10936 10936 10936 10936 10936 10936 10935 10935
10968 10966 10965 10963 10961 10960 10958 10957 10956 10956 10955 10956 10956 10956 10956 10956 10956 10956 10956 10956 10956 10957 10957 10957 10957 10957 10957 10957 10957 10956 10956 10955 10954 10953 10952 10951 10951 10950 10949 10947 10946 10945 10944 10944 10944 10944 10944 10944 10945 10946 10946 10946 10947 10947 10947 10948 10949 10949 10949 10949 10949 10948 10947 10946 10945 10945 10945 10945 10944 10943 10941 10941 10942 10942 10941 10940 10940 10940 10940 10940 10940 10940 10939 10938 10937
10970 10968 10967 10965 10964 10962 10960 10959 10958 10958 10957 10958 10958 10958 10958 10958 10958 10958 10959 10959 10959 10959 10959 10959 10959 10959 10959 10958 10958 10957 10957 10956 10955 10954 10953 10952 10952 10951 10950 10948 10947 10947 10945 10945 10944 10944 10945 10946 10947 10948 10949 10948 10949 10949 10948 10949 10952 10952 10951 10951 10951 10950 10949 10948 10948 10949 10949 10949 10948 10946 10945 10946 10946 10946 10945 10944 10944 10944 10943 10943 10943 10944 10943 10942 10940
10972 10971 10969 10967 10966 10964 10963 10961 10961 10960 10960 10959 10960 10960 10960 10960 10960 10960 10960 10960 10961 10961 10961 10961 10961 10960 10960 10959 10959 10959 10958 10958 10957 10956 10955 10953 10953 10952 10951 10950 10949 10948 10947 10947 10946 10946 10948 10949 10950 10950 10951 10951 10951 10951 10950 10951 10954 10955 10954 10954 10954 10953 10952 10952 10952 10952 10952 10952 10953 10951 10950 10950 10950 10949 10947 10947 10948 10948 10946 10946 10947 10947 10947 10945 10943
10975 10973 10971 10970 10968 10966 10965 10964 10963 10962 10962 10961 10961 10961 10962 10962 10962 10962 10962 10962 10962 10962 10962 10962 10962 10962 10961 10960 10960 10960 10960 10959 10958 10957 10956 10955 10955 10954 10953 10951 10951 10950 10949 10949 10950 10951 10952 10952 10953 10953 10953 10953 10954 10954 10954 10954 10956 10957 10956 10957 10957 10957 10957 10957 10957 10956 10955 10955 10956 10956 10955 10954 10953 10952 10950 10951 10952 10951 10950 10950 10951 10951 10950 10948 10946
10977 10975 10974 10972 10970 10969 10967 10966 10965 10965 10964 10963 10963 10963 10963 10963 10963 10963 10963 10963 10963 10963 10963 10963 10963 10963 10963 10962 10962 10962 10961 10960 10959 10959 10958 10958 10957 10956 10955 10954 10954 10953 10953 10953 10953 10954 10955 10955 10956 10956 10956 10956 10956 10957 10957 10958 10958 10959 10959 10959 10960 10961 10961 10961 10961 10960 10959 10959 10959 10960 10959 10957 10956 10955 10954 10955 10956 10954 10953 10954 10954 10954 10953 10951 10950
10980 10978 10976 10975 10973 10971 10970 10969 10968 10967 10966 10965 10965 10965 10965 10965 10965 10965 10964 10965 10965 10965 10965 10965 10965 10965 10964 10964 10964 10964 10963 10962 10962 10961 10961 10961 10960 10959 10958 10958 10958 10957 10956 10957 10957 10957 10958 10958 10959 10959 10960 10960 10960 10960 10960 10961 10962 10962 10962 10963 10964 10965 10965 10965 10964 10963 10963 10964 10963 10962 10961 10959 10958 10958 10958 10959 10960 10958 10957 10957 10957 10957 10956 10955 10953
10983 10981 10979 10977 10976 10974 10973 10971 10970 10969 10968 10968 10967 10967 10967 10967 10966 10966 10966 10966 10967 10967 10967 10967 10967 10967 10967 10966 10966 10965 10965 10965 10965 10964 10964 10964 10964 10963 10962 10962 10962 10961 10961 10961 10961 10961 10961 10962 10962 10963 10964 10964 10964 10964 10963 10964 10965 10965 10965 10966 10967 10968 10968 10967 10967 10967 10968 10967 10966 10965 10963 10962 10962 10962 10962 10964 10965 10963 10960 10960 10961 10961 10960 10958 10956
10986 10983 10981 10980 10978 10977 10975 10974 10973 10971 10971 10970 10969 10969 10968 10968 10968 10968 10968 10968 10969 10969 10969 10969 10969 10969 10969 10969 10968 10968 10968 10968 10968 10968 10967 10967 10967 10967 10966 10966 10966 10966 10966 10965 10965 10965 10965 10965 10966 10967 10968 10968 10967 10967 10968 10967 10968 10968 10968 10968 10968 10969 10970 10970 10969 10970 10970 10969 10968 10968 10968 10967 10967 10967 10968 10968 10968 10966 10963 10963 10965 10965 10963 10961 10958
10989 10986 10984 10982 10981 10979 10978 10977 10975 10974 10973 10972 10972 10971 10971 10970 10970 10970 10970 10970 10971 10971 10971 10971 10971 10972 10972 10971 10971 10971 10971 10971 10971 10971 10971 10970 10970 10970 10970 10970 10970 10970 10970 10970 10970 10970 10970 10970 10970 10971 10971 10971 10971 10971 10972 10971 10971 10972 10971 10969 10969 10970 10972 10972 10972 10972 10972 10971 10971 10971 10972 10972 10972 10972 10972 10971 10969 10968 10966 10966 10967 10967 10966 10963 10960
10992 10989 10986 10985 10983 10982 10981 10979 10978 10977 10976 10975 10975 10974 10973 10973 10973 10973 10973 10973 10973 10973 10973 10973 10974 10974 10974 10974 10975 10975 10975 10975 10974 10974 10973 10973 10973 10974 10974 10974 10974 10974 10974 10975 10975 10974 10974 10974 10974 10974 10975 10976 10975 10975 10975 10975 10975 10975 10974 10973 10972 10972 10973 10974 10974 10975 10975 10974 10973 10974 10975 10975 10975 10974 10974 10973 10972 10972 10969 10968 10969 10970 10969 10966 10963
10994 10992 10989 10987 10986 10985 10983 10982 10981 10980 10979 10978 10977 10977 10976 10976 10976 10975 10975 10975 10975 10976 10976 10976 10977 10977 10977 10977 10978 10978 10978 10978 10977 10977 10976 10976 10977 10978 10978 10978 10978 10979 10979 10979 10979 10979 10979 10979 10979 10979 10979 10980 10980 10979 10979 10978 10979 10979 10979 10978 10977 10976 10976 10977 10978 10978 10978 10977 10976 10976 10977 10978 10979 10978 10977 10977 10976 10974 10970 10971 10974 10974 10972 10969 10967
10996 10995 10992 10990 10988 10987 10986 10984 10984 10983 10982 10981 10980 10979 10979 10978 10978 10978 10978 10978 10978 10978 10978 10979 10979 10980 10980 10981 10981 10981 10980 10980 10980 10980 10980 10980 10981 10982 10982 10982 10982 10982 10982 10983 10983 10984 10983 10983 10983 10983 10983 10983 10983 10982 10982 10982 10982 10982 10983 10982 10981 10980 10980 10982 10982 10981 10981 10981 10980 10980 10980 10981 10982 10982 10982 10981 10979 10975 10974 10976 10978 10976 10973 10972 10972
10997 10997 10994 10992 10991 10990 10988 10987 10986 10985 10984 10983 10982 10982 10981 10981 10981 10981 10981 10981 10980 10981 10981 10982 10982 10982 10983 10984 10984 10984 10984 10984 10984 10983 10984 10984 10985 10985 10986 10986 10986 10986 10986 10987 10987 10987 10987 10987 10987 10986 10986 10986 10987 10986 10986 10986 10986 10986 10986 10985 10984 10984 10984 10985 10985 10984 10985 10985 10985 10984 10982 10982 10985 10986 10984 10980 10978 10978 10979 10981 10980 10977 10976 10976 10976
10998 10998 10997 10995 10993 10992 10991 10989 10988 10987 10987 10986 10985 10984 10984 10984 10983 10983 10983 10983 10983 10983 10984 10984 10985 10985 10986 10987 10987 10987 10987 10987 10987 10987 10988 10988 10989 10989 10989 10990 10990 10990 10991 10991 10991 10991 10991 10991 10990 10990 10990 10990 10990 10990 10990 10990 10990 10989 10989 10988 10988 10988 10988 10988 10988 10989 10989 10989 10988 10987 10985 10985 10988 10988 10984 10981 10983 10986 10985 10984 10983 10981 10981 10979 10979
10999 10999 10999 10997 10995 10994 10993 10992 10991 10990 10989 10989 10988 10987 10987 10986 10986 10986 10986 10986 10986 10987 10987 10987 10987 10988 10989 10989 10990 10990 10990 10991 10991 10991 10992 10992 10993 10993 10993 10993 10994 10994 10994 10995 10995 10995 10995 10995 10994 10994 10994 10994 10993 10993 10994 10994 10994 10993 10992 10991 10991 10992 10991 10992 10992 10992 10992 10992 10991 10990 10989 10989 10989 10989 10988 10989 10992 10993 10990 10987 10986 10986 10984 10983 10983